Theta_e
333 331 331 333 332 331 329 329 328 326 327 332 334 334 333 334 330 327 325 323 320 317 316 316 316 316 315 316 317 320 324 325 325 324 323 324 320 318 316 315 319 321 321 321 322 322 322 322 321 320 322 324 326 327 328 328 329 328 328 328 329 329 329 329 328 327 327 327 326 324 322 323 324 325 326 327 327 327 327 327 327 327 327 327 327
333 332 331 333 333 332 330 329 328 327 332 335 334 333 333 331 321 316 317 317 315 314 313 314 315 314 316 319 320 321 322 323 324 324 324 322 315 313 313 311 317 320 319 319 318 318 319 319 319 319 320 321 324 326 326 327 328 328 328 328 329 329 328 328 328 328 328 328 327 326 325 324 323 323 323 325 326 326 327 326 326 326 327 327 327
332 332 332 333 333 333 333 332 330 331 335 336 334 333 330 323 314 311 312 312 314 313 312 313 315 317 319 321 321 321 322 323 323 323 323 317 309 310 312 311 315 317 316 317 317 318 319 319 320 321 321 321 323 324 325 326 327 327 327 328 328 328 328 328 328 329 328 328 328 328 327 326 324 322 321 323 325 326 326 326 326 326 326 327 327
330 330 331 331 331 333 335 335 334 335 335 335 334 329 322 316 313 312 312 312 313 314 314 316 318 320 322 321 320 318 319 321 320 318 315 310 308 311 314 315 316 315 315 315 316 319 320 319 319 321 322 322 322 323 324 325 325 325 325 326 326 327 328 328 328 328 328 328 328 327 327 326 324 323 322 322 323 325 325 325 326 326 326 326 327
328 328 329 331 332 334 336 336 336 336 335 335 332 322 314 313 313 312 312 313 314 317 319 319 319 321 321 321 319 317 318 316 312 311 309 308 309 312 316 318 318 318 318 319 319 320 319 319 319 319 321 321 322 322 323 324 324 324 324 325 326 327 328 327 327 327 327 328 328 327 327 326 325 325 324 323 322 323 322 324 326 326 326 326 326
328 330 331 334 335 335 336 336 336 336 335 335 330 318 312 312 312 312 313 314 317 320 322 320 319 319 319 319 319 317 316 312 308 307 307 308 310 313 317 319 319 319 320 320 320 320 319 319 319 319 319 320 321 321 322 323 323 324 324 324 325 327 328 327 327 327 327 327 327 327 327 326 326 325 325 324 323 322 321 322 324 324 324 325 326
332 333 334 335 335 334 336 336 336 336 335 335 328 316 312 312 312 313 314 316 317 319 321 320 319 318 317 317 317 314 311 309 307 308 307 308 309 311 314 316 317 317 316 317 318 319 320 318 317 318 319 319 320 320 320 320 320 321 322 323 325 326 326 327 327 327 327 327 327 327 327 326 326 326 326 324 323 323 321 321 322 323 322 323 325
334 335 335 335 335 333 335 336 336 335 335 335 329 318 313 313 313 313 315 316 315 316 319 319 319 318 317 318 317 312 309 308 308 307 307 307 307 308 309 310 311 311 310 311 314 317 319 317 316 316 316 316 317 318 319 320 319 318 319 320 322 325 325 325 325 325 325 326 326 327 327 326 326 326 326 326 324 323 323 323 323 324 324 324 324
334 334 334 335 335 335 335 336 335 335 335 334 329 322 317 316 314 314 316 317 315 315 318 319 320 319 318 320 318 311 308 308 307 307 307 307 306 307 307 307 307 307 306 307 311 316 317 315 314 313 311 309 310 310 314 316 315 316 319 319 319 323 324 324 324 325 325 325 325 325 325 325 325 325 326 326 325 324 324 324 324 324 323 323 323
334 334 333 334 335 335 335 335 336 336 335 333 331 328 325 323 318 314 314 317 317 317 319 321 321 320 319 319 315 309 308 309 308 308 307 307 307 307 306 307 307 306 306 306 309 312 313 312 311 309 307 306 306 306 307 307 307 311 315 317 318 320 320 321 322 322 323 324 323 323 323 324 324 324 325 327 326 325 325 325 325 323 322 322 322
333 333 333 333 334 334 334 335 336 335 333 330 330 331 330 328 322 316 313 315 319 321 322 323 322 320 319 315 310 309 309 309 308 308 308 307 307 307 307 307 307 307 307 306 307 308 309 308 307 307 306 306 306 306 306 306 306 307 307 310 315 317 316 317 317 315 317 320 321 321 321 322 323 324 324 325 325 324 324 324 324 323 322 322 321
330 332 332 333 332 332 332 332 334 333 330 328 330 331 330 329 327 322 316 316 322 325 324 324 322 318 314 311 309 309 309 308 309 309 308 308 307 307 307 307 307 307 307 307 307 307 307 307 306 306 306 307 307 307 307 306 306 306 305 306 308 310 311 312 312 309 310 314 315 316 318 319 320 321 322 323 323 322 323 323 323 321 320 322 321
329 330 331 330 329 329 328 329 331 330 329 329 331 331 331 332 332 330 324 319 322 326 326 324 319 313 310 311 311 310 308 309 309 309 309 309 308 308 307 307 307 307 307 307 307 307 307 307 307 307 307 307 307 307 307 307 307 306 307 306 306 306 307 307 306 306 307 310 312 314 316 317 317 319 320 320 319 317 315 316 318 318 318 319 318
329 328 328 327 327 326 326 327 328 327 327 329 331 333 334 333 332 331 329 325 325 325 325 322 315 309 311 314 315 313 312 310 308 309 310 309 309 309 308 308 307 307 307 307 307 307 307 307 307 307 307 307 307 307 307 307 306 306 306 306 306 306 306 306 306 305 306 307 308 310 311 312 312 314 314 312 310 308 306 306 309 314 316 316 315
329 328 328 327 327 327 326 326 326 326 326 328 333 335 333 331 331 330 328 327 327 325 323 320 313 310 313 317 318 318 317 313 309 309 309 309 310 310 310 309 308 308 308 308 307 307 307 307 307 307 307 307 307 307 306 306 306 306 306 306 306 306 306 306 305 305 305 305 305 305 305 306 306 306 306 305 305 305 304 304 305 308 312 313 313
329 329 328 328 328 328 327 327 326 327 328 331 335 335 331 328 329 330 327 326 327 326 325 320 312 310 314 318 320 320 320 317 312 310 310 309 311 311 311 312 311 310 309 309 309 308 308 308 307 307 307 307 307 306 306 306 306 306 305 305 306 306 305 305 304 304 304 304 304 304 304 303 303 303 303 304 304 304 303 304 304 305 307 309 312
326 328 327 328 328 328 328 328 327 328 328 330 334 334 331 328 327 328 327 326 326 326 325 320 312 310 314 319 320 319 320 319 315 313 312 311 313 314 314 315 314 313 312 311 311 310 310 309 309 309 308 308 308 307 307 307 306 306 306 306 306 305 305 304 304 304 303 304 304 303 303 303 303 303 303 303 303 303 303 303 303 304 305 306 310
325 326 326 327 328 328 328 328 328 329 329 329 331 331 331 330 328 328 326 325 326 326 324 320 314 311 313 319 319 318 319 320 317 316 315 313 314 316 316 316 316 316 315 313 312 312 311 311 311 311 311 310 309 309 308 307 307 306 306 306 306 306 305 305 304 304 304 303 303 303 303 303 303 303 303 303 303 303 303 303 303 303 303 303 305
325 326 326 326 326 326 328 328 328 329 329 329 329 329 330 329 329 328 326 325 326 325 324 320 316 312 314 318 319 318 319 320 319 319 317 316 316 318 318 317 317 317 317 315 314 314 314 314 313 313 312 312 311 311 310 309 308 308 307 307 307 306 306 305 305 305 305 304 304 304 304 303 303 303 303 303 303 303 303 303 303 303 303 303 303
325 325 326 326 326 326 326 327 327 328 328 328 328 328 328 328 327 327 326 326 326 326 324 321 317 314 317 320 320 319 320 320 320 320 320 318 318 319 319 319 318 317 317 317 317 317 318 317 317 316 315 314 313 313 313 312 311 310 309 308 308 308 307 307 306 306 306 306 305 304 305 305 304 304 304 304 304 304 304 304 304 304 304 305 305
325 325 325 325 325 326 326 326 327 326 327 327 327 327 327 327 327 326 326 325 325 326 325 322 318 316 320 322 320 320 321 320 319 320 321 320 319 319 319 320 319 318 318 318 318 319 319 319 318 318 318 318 317 316 316 315 314 313 311 310 309 308 308 308 307 307 307 306 306 305 305 305 305 305 305 305 305 305 306 305 305 306 306 307 307
325 324 324 323 323 324 325 326 326 326 326 326 326 327 326 326 326 325 325 324 324 325 324 322 318 316 319 323 321 321 321 319 318 319 320 320 320 319 319 320 320 319 319 319 319 320 319 320 319 319 319 319 319 319 319 318 317 316 314 313 312 311 310 309 309 309 308 308 307 307 306 306 306 305 306 306 306 306 306 306 306 306 306 306 307
323 323 323 322 322 322 323 324 324 324 325 325 325 326 325 325 325 325 325 324 324 324 324 322 317 313 317 322 322 321 321 321 321 320 320 320 321 320 320 320 320 320 320 320 320 320 320 320 320 320 320 320 319 319 319 319 319 319 318 317 317 316 314 313 311 310 310 310 309 308 308 307 306 306 305 305 306 306 306 306 306 306 305 305 305
323 322 322 321 321 321 322 322 322 323 323 324 324 324 325 325 324 324 324 323 323 323 323 323 318 315 319 321 322 322 322 322 322 322 320 321 321 320 320 321 320 320 320 320 320 320 320 321 320 320 320 320 319 318 319 319 319 319 319 319 319 319 319 317 315 314 313 313 312 311 310 309 308 307 306 306 305 305 306 306 305 305 304 304 304
322 322 322 322 322 321 320 321 321 321 322 322 323 323 324 324 324 324 323 323 322 321 322 322 318 319 322 322 322 323 322 322 323 322 321 321 320 320 320 321 320 320 320 320 320 320 320 321 321 321 321 320 319 318 318 319 319 319 319 319 319 319 319 319 319 318 317 316 315 314 312 311 310 309 308 307 306 305 306 305 305 304 304 304 304
319 319 319 319 320 320 320 320 321 321 321 322 322 322 323 324 324 323 323 322 322 320 321 321 320 321 322 321 322 322 322 322 323 322 321 321 319 318 319 320 319 319 320 320 320 319 320 321 321 321 321 321 319 317 317 318 318 319 318 317 318 318 318 319 319 319 318 317 317 316 314 313 312 311 310 308 307 307 307 307 305 304 304 304 304
317 316 315 315 316 316 316 317 317 316 317 319 320 320 322 322 323 323 323 323 322 322 322 322 322 322 321 319 320 320 321 322 322 322 321 321 320 320 321 320 319 319 320 320 319 319 319 319 319 320 320 320 319 317 317 317 318 318 316 314 316 317 317 318 318 318 318 317 317 316 315 314 314 314 313 311 310 309 310 310 308 307 305 305 304
317 317 315 314 314 313 313 313 312 312 312 315 316 317 318 319 319 320 321 321 322 322 322 322 322 322 322 320 319 319 321 321 321 320 320 321 321 321 321 320 319 320 320 320 320 320 320 319 319 319 319 319 318 318 319 319 318 317 315 313 315 317 317 317 318 318 318 318 317 316 316 315 314 315 314 313 312 311 311 312 312 310 309 309 307
316 316 316 315 314 314 313 313 312 311 311 311 312 313 314 315 315 315 316 317 318 319 319 319 319 318 318 318 318 318 318 319 319 319 319 320 320 319 319 319 319 319 319 319 319 319 320 319 319 320 319 319 319 319 320 320 319 318 316 316 317 317 318 318 318 318 318 317 317 317 316 316 315 315 315 314 313 312 312 312 312 312 311 310 309
314 314 314 314 314 314 314 313 313 312 311 310 310 310 310 311 312 311 312 312 313 314 314 314 313 312 312 313 313 313 312 312 314 315 316 316 315 315 316 316 316 316 315 316 317 316 316 316 317 317 318 319 320 320 320 320 320 319 318 318 318 319 320 319 319 318 318 318 317 317 317 316 316 315 315 314 314 313 313 313 312 312 310 309 309
313 313 312 312 312 313 313 312 312 311 311 310 310 310 309 308 308 309 309 309 309 310 310 310 310 309 309 309 309 309 309 309 310 311 311 311 311 312 312 312 312 312 313 315 316 316 315 315 315 315 315 315 317 318 320 320 320 320 319 319 319 319 320 319 319 319 319 318 317 317 317 316 316 315 315 314 313 313 313 312 312 311 310 310 309
314 312 312 311 311 311 311 311 311 310 310 310 310 310 309 308 307 307 307 307 307 307 308 309 309 309 308 308 308 309 309 309 309 309 309 310 310 310 310 310 311 311 311 313 314 314 315 315 315 315 315 314 313 314 315 318 319 320 320 320 320 320 320 319 319 319 319 318 317 317 316 316 316 315 314 314 313 312 311 311 310 310 310 310 309
314 313 312 311 311 311 310 310 310 310 310 310 310 309 309 309 308 306 305 305 306 306 306 307 308 307 308 308 308 308 308 308 308 308 309 309 309 310 310 310 310 310 311 311 311 312 312 313 314 314 315 315 314 313 312 313 314 316 318 319 319 319 319 319 319 319 318 318 317 316 316 316 315 314 313 313 312 311 311 310 309 309 309 309 308
313 312 311 311 311 310 310 309 309 309 309 309 309 308 308 308 307 306 306 306 306 307 307 307 307 307 307 307 307 307 307 307 308 308 308 308 307 307 307 307 307 307 308 307 308 308 309 311 312 312 313 313 314 314 314 312 311 312 314 315 316 316 316 317 318 318 318 317 316 316 316 315 314 313 313 313 312 311 310 310 309 309 309 308 308
311 311 310 309 309 309 309 308 308 308 308 308 308 308 307 307 307 307 307 307 306 307 307 307 307 307 307 307 306 306 307 307 308 308 308 307 307 306 304 303 303 304 304 304 304 304 304 306 307 309 310 311 312 313 314 314 313 313 313 313 314 315 315 315 316 317 317 316 316 316 315 314 313 313 312 312 312 311 310 309 309 309 308 307 307
310 310 309 308 308 308 308 308 308 307 307 307 308 308 307 308 308 308 308 307 307 307 307 307 307 307 307 307 307 307 307 308 308 308 308 307 307 305 303 302 302 302 302 303 303 303 302 302 303 304 305 307 309 311 312 312 313 313 313 312 313 314 314 314 314 315 315 315 315 315 314 313 312 312 312 311 310 309 308 308 309 309 308 307 306
307 308 309 308 308 308 308 308 308 307 307 306 307 307 307 308 308 308 307 307 307 307 307 306 306 307 307 307 306 306 307 307 308 308 308 307 307 306 305 305 304 303 303 303 303 303 302 302 302 302 302 303 305 308 310 311 311 312 313 313 312 313 314 315 315 315 315 315 314 314 313 312 311 311 310 309 308 308 307 307 307 307 306 304 303
304 305 306 306 307 307 307 307 308 307 307 306 306 306 306 306 307 307 307 307 307 307 306 306 306 306 306 306 306 306 306 307 307 307 307 307 307 307 307 307 306 306 306 306 305 303 302 302 302 302 302 302 303 306 309 311 311 312 313 313 313 313 314 315 315 315 314 314 313 313 311 310 309 309 309 308 308 307 306 305 304 303 302 301 300
303 303 304 304 304 305 305 305 305 306 306 306 306 306 305 306 306 306 306 305 305 305 306 306 306 305 306 306 306 306 306 306 306 305 305 305 305 305 306 306 306 306 306 307 306 304 303 303 303 303 303 304 304 306 308 310 311 312 313 314 314 314 314 314 314 313 313 312 312 311 310 309 309 309 309 308 306 305 303 302 302 301 300 299 299
302 302 302 303 303 304 304 303 304 304 304 304 305 305 304 304 304 305 305 304 304 304 305 305 305 304 305 305 305 306 306 305 305 305 305 305 305 306 306 307 308 308 308 308 307 306 306 305 305 305 306 306 307 308 309 310 311 311 312 313 314 314 314 313 313 312 312 311 310 310 309 309 308 308 307 306 305 304 303 302 301 300 299 298 298
301 301 301 302 302 302 303 303 303 303 303 303 303 303 303 303 303 303 304 304 304 304 304 304 305 305 305 306 306 306 306 305 305 305 306 306 306 307 307 307 308 308 308 308 308 308 308 308 308 308 307 308 309 309 310 310 310 311 312 313 313 313 313 312 312 311 310 309 309 309 308 307 306 305 304 303 303 302 301 301 300 299 298 297 296
300 300 300 300 300 301 301 302 302 303 302 302 302 303 303 303 303 303 303 303 303 304 303 304 304 304 305 305 305 305 305 305 305 305 306 306 305 305 305 305 306 306 306 307 308 308 308 309 309 308 307 308 309 309 310 310 310 310 311 312 312 312 311 310 310 309 309 308 307 307 306 305 304 303 303 302 301 301 300 299 297 296 295 294 294
300 300 300 299 300 300 300 300 301 301 301 302 302 302 302 302 302 302 302 302 303 303 304 304 304 304 304 304 304 304 304 304 304 304 304 305 305 304 304 305 305 306 307 308 308 308 308 308 307 307 306 307 308 309 309 309 309 310 311 311 311 310 309 309 308 308 307 307 306 306 305 305 304 303 303 302 301 300 298 295 294 294 294 294 294
299 299 299 299 299 299 299 300 300 300 300 301 301 301 302 302 302 302 302 302 303 303 303 304 304 304 304 304 304 304 304 303 304 304 305 305 306 306 306 307 307 307 307 307 307 308 308 308 307 307 306 306 307 308 308 308 308 309 309 309 308 308 308 308 307 307 306 306 305 305 305 304 303 302 301 300 297 295 294 293 293 294 294 294 293
299 299 299 299 299 299 299 299 299 299 300 300 300 301 301 301 302 302 302 302 302 303 303 303 304 304 304 304 303 303 303 303 304 304 305 305 306 306 306 307 307 307 306 306 306 307 308 308 307 307 306 306 307 308 307 307 307 307 306 306 305 305 305 305 305 305 305 304 304 303 302 300 299 298 297 295 294 293 293 293 293 293 293 293 293
298 298 298 299 299 299 299 299 299 299 300 300 300 301 301 301 301 301 302 302 302 302 303 303 303 303 303 303 303 303 303 303 303 303 304 304 304 304 304 304 305 304 303 304 304 305 307 307 307 307 306 307 307 308 307 307 306 306 305 304 304 303 303 303 304 303 303 301 300 299 298 296 295 294 293 293 293 293 293 293 293 293 293 292 292
299 298 298 298 299 299 299 299 299 299 300 300 300 301 301 301 301 301 302 302 302 302 302 302 302 302 302 302 302 302 302 302 303 303 303 303 303 303 303 303 302 302 302 302 304 305 306 307 307 307 307 307 307 307 306 306 305 304 304 304 303 303 303 302 302 301 299 297 296 295 294 293 293 293 293 293 293 293 293 293 292 292 292 291 291
299 298 298 298 298 298 298 299 299 299 299 300 300 300 300 300 300 301 301 301 301 301 301 301 301 301 301 301 302 302 302 302 302 302 302 302 303 303 303 303 303 303 303 303 304 305 306 307 307 307 307 306 306 306 305 304 304 303 303 303 302 301 300 299 297 296 295 294 294 293 293 292 292 293 293 293 293 293 292 292 292 291 291 291 290
298 299 299 298 298 298 298 299 299 299 299 299 299 300 300 300 300 300 300 300 300 300 300 301 301 301 301 301 301 301 301 301 301 302 302 302 303 303 303 303 302 302 302 302 303 304 305 305 305 305 306 305 305 305 304 303 302 302 301 300 299 297 296 295 293 293 293 293 293 293 293 293 293 293 293 293 293 292 292 292 291 291 290 290 290
298 298 298 298 298 298 298 298 298 298 298 299 299 299 299 299 300 300 300 300 300 301 301 301 301 301 301 301 301 301 301 301 302 302 302 303 303 303 302 302 301 301 301 302 303 303 303 304 304 304 304 304 304 304 303 301 300 299 297 296 294 293 293 292 292 293 293 293 292 293 293 293 293 293 293 292 292 292 291 291 291 291 290 290 290
297 298 298 298 298 298 298 298 298 299 299 299 299 299 299 299 300 300 300 300 300 301 301 301 301 301 301 301 301 301 301 301 301 301 301 302 301 301 301 301 301 301 301 302 303 303 303 303 304 304 304 303 302 301 300 299 297 296 294 293 292 292 292 293 293 293 292 292 292 293 293 293 292 292 292 292 291 291 291 291 291 290 290 290 289
Wind_Speed
31 31 31 31 32 32 31 31 29 27 26 29 31 29 26 25 24 24 24 22 20 19 17 16 15 14 13 13 11 10 10 9 8 6 5 3 1 3 5 5 4 4 6 7 8 6 5 3 2 2 2 3 3 4 5 6 7 7 9 11 12 12 13 15 16 14 14 13 10 9 12 15 15 17 18 17 14 12 12 12 12 11 9 7 9
31 30 30 30 31 30 29 31 30 27 27 29 29 28 27 25 23 24 24 22 20 18 17 17 16 14 13 13 12 11 9 8 7 7 5 3 2 4 5 5 5 5 5 6 7 6 4 2 1 2 3 3 3 3 3 3 5 6 8 10 10 11 11 13 15 15 15 13 12 11 11 14 16 17 19 19 16 15 15 14 13 12 10 7 7
31 29 30 31 31 30 30 32 30 26 27 27 26 26 27 25 23 23 23 21 19 18 17 16 15 15 14 13 12 11 11 10 9 8 7 6 4 8 8 9 9 7 6 5 5 5 4 2 2 3 4 5 5 4 4 4 5 5 7 8 8 9 9 11 13 13 13 12 11 11 10 10 12 12 15 18 18 17 17 16 15 15 14 11 8
33 31 32 33 34 32 31 32 29 26 26 26 24 25 26 26 24 23 22 20 18 17 16 15 15 14 13 12 10 11 12 11 10 9 8 6 7 9 9 11 11 8 6 5 4 4 3 2 1 3 4 5 6 6 5 4 4 4 4 6 7 8 8 9 11 11 11 10 9 9 8 8 7 7 10 15 18 18 17 17 15 14 16 14 10
36 35 35 36 37 35 31 32 30 27 27 25 23 25 27 27 25 22 22 20 19 19 17 16 16 15 15 15 13 13 12 9 9 10 9 8 9 9 9 10 9 7 7 5 4 4 4 2 1 2 3 3 4 4 4 3 2 3 2 3 5 6 7 8 10 10 10 11 11 9 7 6 7 6 7 10 15 18 18 17 14 12 12 12 10
37 37 37 37 36 34 32 32 30 28 27 24 23 25 27 26 24 23 22 22 21 20 18 16 15 15 16 16 15 14 12 10 11 11 10 9 9 8 8 8 7 6 7 7 6 6 6 5 3 1 1 1 3 2 3 3 1 1 1 2 2 4 5 5 6 7 8 10 12 11 8 6 6 7 7 6 8 13 16 16 14 13 11 11 11
36 36 35 35 35 34 33 33 32 29 27 23 23 24 26 25 23 24 24 23 22 20 18 16 16 15 14 13 13 12 12 13 12 11 10 9 9 8 8 7 6 5 6 7 8 8 7 6 5 2 1 2 2 3 3 3 3 3 2 1 1 2 4 3 3 5 6 8 10 11 11 8 6 6 7 6 5 7 11 13 14 14 13 12 11
37 36 35 35 35 35 34 34 32 29 27 24 23 25 26 26 24 25 25 24 22 19 18 17 16 15 14 13 11 10 13 15 14 12 11 10 10 9 8 7 7 6 5 6 8 9 7 6 4 3 3 3 4 6 6 6 6 5 4 1 1 1 4 4 4 4 4 6 9 10 10 10 9 8 7 7 6 5 6 9 10 10 10 10 9
36 36 35 34 34 34 33 33 31 28 26 24 24 24 25 26 25 25 26 24 22 20 19 19 17 16 15 15 13 13 15 16 15 12 11 11 11 11 10 9 8 8 7 6 7 8 6 5 4 4 3 1 2 4 6 6 7 6 5 4 3 2 3 4 4 4 5 6 7 9 8 8 9 10 9 8 7 5 5 6 7 7 6 5 5
35 34 34 34 33 32 31 31 30 28 25 24 24 24 24 25 25 26 26 25 23 22 22 21 20 18 17 17 16 17 18 17 15 13 12 12 12 12 12 11 10 9 8 8 8 7 6 5 5 5 5 6 6 4 2 1 1 3 4 5 4 3 3 3 2 2 4 5 6 7 7 6 7 8 8 9 8 6 6 6 6 5 6 5 4
35 34 34 34 33 31 30 30 29 27 25 24 25 25 25 25 26 27 27 27 26 25 24 23 21 20 19 18 19 20 20 18 16 15 14 13 13 13 13 12 11 10 9 9 8 7 7 7 7 7 6 7 8 8 8 8 7 5 2 2 4 4 3 3 3 4 4 5 5 5 5 4 4 4 5 6 6 6 6 5 5 5 6 6 6
33 32 32 33 32 31 30 29 29 28 26 25 26 27 27 27 28 27 27 28 28 28 27 24 22 21 20 19 20 21 20 18 16 15 14 13 13 14 14 13 12 11 10 9 9 8 8 8 8 8 8 7 8 8 8 9 8 8 7 5 3 2 2 2 3 4 4 5 4 5 5 4 3 3 3 4 4 5 6 6 7 7 6 7 7
28 29 30 30 30 29 28 28 29 28 27 27 27 28 30 30 30 28 27 28 29 29 27 23 21 21 20 19 19 19 18 17 15 14 14 13 13 13 14 14 13 13 12 11 10 9 8 8 8 8 8 7 7 7 7 8 8 7 7 7 6 5 4 3 1 1 2 3 3 3 4 4 4 4 3 4 4 5 6 7 8 9 8 7 7
24 26 27 27 27 27 25 26 27 26 27 27 27 30 32 32 30 28 27 27 28 28 26 23 22 21 20 18 17 16 16 16 15 13 13 13 12 12 13 14 14 13 13 12 11 10 9 9 8 8 8 7 7 7 6 6 7 7 6 6 5 5 5 5 4 3 2 1 1 2 2 3 3 4 4 5 6 5 5 6 8 10 8 7 6
21 20 20 21 22 23 23 25 26 26 26 26 28 32 28 25 27 26 24 25 27 28 26 24 23 21 19 17 16 14 13 14 15 14 12 12 12 12 12 13 13 13 13 13 12 11 10 9 9 8 7 7 8 7 6 6 6 6 6 5 5 5 5 4 4 4 3 2 1 1 1 1 1 1 1 2 3 2 2 2 4 8 9 8 7
21 19 16 15 15 16 18 21 24 26 27 25 28 30 20 15 19 23 22 24 27 29 26 24 24 21 20 19 17 15 13 13 15 15 13 12 11 12 13 13 13 13 13 13 12 12 10 10 10 9 8 7 7 8 7 6 6 6 5 5 5 5 4 4 4 4 4 3 2 2 3 3 3 2 2 1 1 1 1 1 0 3 6 8 8
19 18 15 13 12 13 13 14 16 21 25 26 28 28 18 11 15 20 22 25 29 29 25 24 25 22 21 21 18 16 15 14 14 14 14 12 11 10 10 11 11 11 11 11 11 11 11 10 9 8 7 6 6 7 6 6 6 5 5 5 5 4 4 5 5 5 5 4 3 3 4 4 4 4 3 3 3 3 2 2 2 2 2 5 7
15 14 13 11 10 10 10 11 11 12 16 20 22 22 17 13 15 18 21 25 30 31 26 26 26 23 23 23 20 18 16 16 15 13 13 13 11 10 9 8 8 7 7 8 8 9 9 9 8 7 6 5 5 5 5 4 5 5 4 5 5 4 4 4 5 5 5 5 4 3 4 4 4 4 3 3 4 3 3 3 4 4 3 3 4
16 14 13 13 12 10 9 8 8 9 9 10 11 12 12 12 12 14 17 22 29 30 29 28 27 26 25 24 22 19 16 15 16 14 13 13 12 11 9 8 7 7 6 5 5 6 7 7 7 6 5 4 3 3 2 2 3 3 3 3 4 4 4 4 3 4 5 5 4 4 4 4 4 3 2 3 2 2 3 3 3 4 4 4 4
17 16 14 14 13 11 10 7 6 6 7 8 7 7 8 6 6 9 14 20 26 27 29 29 27 28 27 25 23 20 17 16 16 16 14 13 13 12 11 10 9 8 8 6 5 4 4 4 5 5 5 5 3 2 1 0 1 1 1 1 2 2 2 2 2 2 3 3 3 3 3 4 4 3 2 2 2 2 2 2 3 4 4 4 4
15 14 13 12 12 10 10 8 6 5 5 6 6 5 5 4 5 6 9 17 22 24 28 29 27 27 26 24 23 21 20 18 17 17 17 14 14 14 13 13 11 10 10 8 7 5 4 3 3 3 3 3 3 2 1 1 2 3 4 3 3 3 2 2 2 1 1 0 1 1 2 2 3 3 3 2 1 1 2 2 3 3 3 4 4
13 11 10 9 9 9 9 8 7 6 5 6 6 6 5 4 4 4 7 13 19 22 25 26 26 27 25 23 23 22 22 20 18 19 20 18 17 16 15 15 14 12 12 10 9 7 6 6 5 4 3 3 2 2 2 1 1 2 3 4 5 5 5 5 4 3 3 3 3 2 2 2 1 0 1 1 1 1 0 1 2 2 3 4 4
12 11 9 9 10 10 11 10 9 9 7 7 6 6 7 5 4 5 8 12 15 17 20 23 25 26 25 23 22 23 23 21 20 21 21 20 20 19 16 16 15 14 13 12 12 11 9 9 8 7 7 6 5 5 5 4 3 3 3 4 5 6 7 7 7 6 5 5 5 5 5 4 3 3 3 3 3 3 3 2 2 3 4 5 6
12 10 8 9 10 10 11 11 11 11 10 10 10 9 8 7 5 7 9 12 13 13 17 21 24 25 26 26 25 25 24 23 22 22 21 20 20 19 18 18 18 17 15 14 14 13 13 12 11 11 11 10 9 9 8 6 6 6 7 7 7 8 8 9 9 9 8 7 7 7 7 7 6 6 5 5 5 5 5 5 5 5 6 6 8
13 11 9 9 9 8 9 10 10 12 12 13 14 13 12 11 10 10 10 11 12 13 16 21 25 27 27 26 26 25 24 24 24 23 21 20 18 19 21 22 20 19 18 17 16 16 15 14 13 13 14 14 12 12 12 10 8 9 10 11 11 11 11 11 11 11 11 10 9 8 8 9 9 8 7 7 7 7 7 7 8 8 8 9 9
14 13 12 11 10 8 8 8 8 9 11 13 14 14 15 15 15 14 13 12 12 13 15 19 23 26 25 23 22 22 21 21 20 19 19 19 19 20 23 23 22 20 20 20 19 18 17 16 15 15 16 17 16 17 17 14 11 11 13 14 15 14 15 15 15 14 14 13 12 10 10 10 10 9 9 9 8 8 8 9 10 11 11 12 13
16 15 15 13 12 11 10 9 9 9 10 12 13 15 16 17 17 16 15 14 13 13 14 16 19 21 21 20 20 20 20 19 17 16 18 19 21 23 25 24 22 20 20 20 19 19 19 19 18 18 18 20 20 20 18 16 15 15 15 13 13 14 16 17 18 17 16 16 15 13 12 12 11 9 9 10 9 8 8 10 12 13 14 15 15
17 17 16 15 15 14 12 12 10 10 12 13 14 15 16 17 17 15 14 13 12 12 12 13 15 16 18 19 18 18 17 17 17 18 19 19 20 22 23 21 20 19 20 20 19 19 19 19 20 20 20 21 20 19 18 17 17 17 16 14 13 15 18 19 20 19 19 18 18 16 15 15 13 9 9 10 11 10 8 9 12 14 15 16 17
20 20 19 18 17 15 15 14 11 10 11 11 11 13 14 16 17 16 15 13 11 11 10 10 10 10 12 14 13 12 12 13 13 13 12 11 11 12 12 12 13 14 14 14 14 15 15 16 17 18 19 20 20 20 19 18 18 19 20 21 21 21 22 22 21 20 21 21 20 19 18 18 16 12 10 11 12 12 12 13 15 15 15 17 18
23 23 22 20 19 18 17 17 15 13 12 10 9 9 11 14 15 14 14 13 12 11 10 10 8 8 8 9 9 8 8 8 8 7 7 6 6 5 5 5 5 6 6 6 7 7 7 8 9 11 13 15 17 19 19 19 19 20 21 22 23 22 23 24 23 22 22 23 24 23 21 20 19 15 13 13 13 14 14 16 17 15 14 16 18
22 24 23 21 21 21 20 19 19 17 14 12 10 8 8 10 10 11 11 11 10 10 11 11 10 9 9 8 8 7 6 7 7 6 7 7 6 6 6 5 5 5 5 6 5 5 4 5 5 6 7 9 12 13 15 17 18 19 20 21 22 22 23 24 24 24 23 24 26 25 23 22 21 19 17 16 15 15 15 15 16 15 16 19 20
19 21 21 19 19 20 20 19 18 17 15 13 11 9 8 7 6 5 5 6 6 7 9 10 10 10 10 9 8 7 7 6 6 6 6 6 5 6 6 6 6 6 6 6 6 6 6 5 5 6 6 7 8 9 10 12 14 16 17 18 19 20 20 21 23 25 24 24 26 27 25 24 24 22 21 19 19 18 16 14 14 15 17 19 21
16 18 18 17 16 15 16 16 16 15 14 12 11 10 8 6 4 4 5 6 6 6 6 7 8 8 9 8 8 9 8 8 7 7 7 7 7 6 6 7 7 8 8 8 8 8 8 8 7 7 7 8 8 9 10 11 11 12 12 13 15 16 18 19 21 23 23 23 25 27 27 26 26 25 23 21 21 20 17 16 15 14 16 19 22
13 13 13 13 13 12 12 12 12 12 12 12 11 9 7 5 4 4 5 5 6 5 4 5 5 5 5 5 6 7 8 8 8 8 8 8 8 8 8 8 8 8 8 8 8 9 9 10 10 10 10 10 10 10 10 12 12 12 13 13 14 15 17 18 18 18 18 19 23 27 28 28 27 26 24 24 23 21 18 17 16 16 18 20 23
14 14 14 14 12 11 10 10 10 9 9 10 10 9 8 7 7 6 6 5 5 4 3 4 3 2 3 4 4 5 6 7 8 8 8 8 8 8 8 7 7 7 7 7 8 8 9 9 11 13 14 14 13 12 12 12 13 14 14 15 16 16 16 16 16 15 15 16 21 26 29 28 26 25 25 24 23 20 19 19 19 19 20 21 24
12 12 13 14 12 11 9 7 6 7 8 8 10 10 10 10 9 8 7 7 6 5 3 2 2 2 3 4 4 4 5 6 7 7 7 8 9 9 8 7 7 7 8 9 9 10 10 9 10 12 13 15 15 15 14 14 15 15 16 16 17 17 16 16 15 14 13 15 19 25 27 26 24 24 24 23 21 20 20 21 22 22 21 22 25
11 7 8 8 4 2 2 2 3 5 7 7 6 5 6 8 9 9 8 7 7 6 5 4 4 3 4 4 5 5 5 5 6 6 7 8 8 8 9 10 11 11 12 12 12 12 12 12 12 12 12 13 14 15 15 15 15 16 17 17 17 17 17 16 15 14 14 17 22 25 25 24 23 23 22 21 20 20 21 22 21 21 21 22 25
11 9 6 5 1 3 3 6 9 8 4 2 1 2 2 5 7 8 8 8 8 8 7 6 5 5 5 6 6 7 7 7 8 8 8 9 9 10 11 12 14 15 15 15 15 15 15 14 14 14 14 15 15 16 16 16 15 16 17 18 17 16 15 15 15 16 18 21 24 24 23 22 22 21 21 21 21 21 21 21 20 21 23 24 26
11 9 7 5 2 4 4 1 5 6 7 8 8 5 3 5 7 8 9 10 10 10 10 9 8 9 9 9 9 10 11 11 12 12 12 13 13 14 15 15 16 17 17 17 17 16 16 15 16 16 16 16 16 17 17 16 15 15 16 17 17 16 15 15 16 18 20 22 23 23 23 23 22 21 21 21 21 21 20 20 22 24 25 27 28
10 9 8 7 5 3 2 3 4 4 4 6 8 8 7 7 7 8 10 10 9 10 11 11 12 12 12 12 13 13 13 14 14 14 14 14 14 15 16 15 15 15 17 17 17 17 16 16 16 16 17 17 18 18 18 17 15 14 14 15 15 15 14 15 16 18 20 21 22 23 22 21 20 19 19 20 20 21 22 24 26 27 28 29 31
10 9 8 8 8 9 9 8 7 7 7 7 8 9 10 10 9 8 9 10 10 11 11 11 13 13 14 15 15 15 15 15 15 15 15 15 15 15 16 16 16 16 17 18 18 18 17 16 16 17 17 18 18 18 18 17 15 13 12 13 14 14 14 15 16 18 20 20 20 19 18 17 18 18 19 20 21 23 24 26 27 28 29 31 32
9 9 10 10 11 12 12 11 10 10 11 10 11 13 13 13 12 10 9 9 10 11 11 13 15 16 17 17 17 16 15 15 16 17 18 19 19 19 20 19 19 19 19 18 18 19 18 18 19 19 19 18 18 17 16 15 14 13 12 13 13 13 14 14 15 17 18 18 17 16 16 17 18 19 21 22 23 25 25 26 27 28 29 29 30
12 12 12 12 12 13 13 12 12 13 15 15 16 16 16 16 16 15 13 12 11 11 12 14 16 17 18 19 18 17 17 18 19 20 21 21 21 21 21 20 19 19 18 18 19 20 20 21 21 20 20 19 17 15 13 12 12 12 13 13 12 12 12 13 14 15 15 15 16 16 17 19 20 22 23 24 25 26 26 26 26 26 26 26 26
15 15 15 14 15 15 15 14 14 14 15 16 18 19 18 17 18 18 16 14 13 13 14 15 15 16 17 18 19 20 21 21 20 20 20 19 18 18 18 18 18 18 18 20 20 21 21 22 21 20 20 20 18 15 12 11 10 11 11 11 11 12 13 14 14 14 15 16 18 18 19 20 21 22 23 24 24 24 24 24 23 23 23 24 23
18 18 17 17 17 16 16 16 15 14 15 16 17 18 18 17 18 18 16 14 13 14 15 16 16 16 17 18 19 20 20 20 20 20 21 20 20 20 20 19 20 21 22 23 21 20 21 22 21 21 20 20 18 15 12 10 10 10 11 11 12 15 15 15 15 15 16 17 17 18 18 19 20 21 21 21 21 21 20 20 20 20 21 21 22
23 22 22 22 21 21 20 18 14 11 12 14 14 14 16 16 17 18 17 16 16 16 16 17 17 17 17 18 19 19 20 21 22 23 24 25 25 26 26 26 26 25 25 25 24 21 21 21 21 21 21 21 19 16 13 12 12 12 12 12 13 15 15 15 15 15 15 15 16 16 17 17 18 18 18 18 18 18 18 19 19 20 21 21 22
24 25 25 25 25 25 25 23 18 11 9 10 10 11 12 13 14 15 17 18 19 20 20 20 21 21 21 22 22 23 24 24 25 26 27 28 29 29 29 28 27 24 23 23 23 21 21 21 21 21 22 22 19 15 13 13 13 13 14 13 13 14 14 14 14 14 14 14 14 15 15 15 15 15 15 15 16 17 18 20 21 21 22 22 23
22 22 23 25 26 27 27 26 24 19 14 12 12 12 13 14 14 15 16 17 18 19 20 21 22 22 24 25 26 26 27 27 28 29 30 30 29 28 28 26 25 23 22 22 21 20 20 20 20 21 22 20 16 13 13 13 13 14 13 12 12 12 12 12 11 11 11 12 12 13 12 12 12 12 12 13 15 17 19 20 21 21 21 21 21
20 20 20 22 24 26 27 28 28 25 22 20 17 16 17 19 19 19 19 19 20 20 20 20 21 21 23 24 25 26 27 28 29 30 31 31 30 29 29 28 28 28 27 26 25 24 22 20 21 23 22 17 14 14 13 12 12 12 11 10 10 10 10 9 9 9 9 10 10 10 10 9 9 10 12 14 16 18 18 18 17 17 17 17 18
23 22 22 23 23 25 27 28 30 28 25 24 23 21 21 21 21 21 20 20 20 20 19 19 20 21 22 23 25 26 27 29 31 31 32 33 33 33 33 34 32 29 26 25 25 24 22 22 21 20 17 12 10 12 13 12 12 11 10 9 9 8 8 7 7 7 7 7 7 7 7 8 9 12 14 16 17 17 16 15 15 15 16 17 18
24 24 25 25 26 26 27 27 26 24 22 21 22 23 23 23 22 21 20 19 19 19 19 20 21 22 23 25 27 29 30 31 32 33 33 34 35 36 37 35 30 25 22 21 21 22 23 22 17 13 12 10 9 10 13 13 11 10 9 8 7 7 6 6 6 6 5 4 4 5 7 9 12 14 16 16 15 15 15 15 16 17 17 18 20
Wind_Direction
172 174 176 178 181 181 183 187 186 184 179 175 181 192 197 199 200 199 199 201 200 197 195 192 190 191 188 182 180 182 185 182 174 169 172 178 254 251 230 220 206 195 189 188 190 190 186 178 173 175 180 187 198 207 213 220 225 227 225 225 229 231 231 226 222 224 226 232 243 240 224 218 225 230 223 222 228 222 214 209 203 204 208 214 219
173 177 180 182 185 184 184 185 186 184 178 181 194 202 204 207 202 196 195 196 197 194 190 188 187 185 181 177 178 182 193 205 194 177 188 214 209 189 191 191 194 204 197 189 193 198 202 192 154 159 169 168 172 179 179 182 192 209 216 219 226 229 230 227 223 225 226 230 238 243 239 232 236 240 233 229 234 232 227 226 221 218 219 218 220
178 181 182 185 187 184 184 187 186 184 182 191 204 208 208 205 197 192 191 189 188 187 183 179 173 170 170 171 178 181 184 200 213 212 225 240 187 154 148 153 169 184 186 188 193 194 204 206 140 131 139 138 143 154 152 146 161 187 209 219 228 232 234 233 227 226 226 227 232 237 242 242 242 243 236 232 234 234 234 235 234 233 235 235 232
178 180 179 183 185 183 184 185 182 183 190 199 206 209 206 199 193 191 187 182 179 176 172 168 160 159 164 166 170 177 178 191 209 215 221 214 171 157 149 149 161 168 172 190 210 213 224 228 153 140 146 143 147 159 160 152 149 153 186 216 225 227 233 237 232 227 225 222 225 229 233 240 246 245 236 232 232 233 235 236 234 234 235 236 233
175 175 177 181 184 186 185 182 182 189 199 205 208 208 201 194 192 188 182 176 172 169 167 165 160 161 171 172 169 173 176 186 191 183 180 174 164 161 158 158 164 162 165 186 213 235 245 249 221 157 163 171 168 174 175 168 145 125 137 180 203 212 220 233 234 228 224 220 221 223 225 237 247 245 234 231 229 227 228 231 232 232 231 234 235
173 174 177 181 185 187 185 183 188 196 204 209 210 206 199 195 191 185 179 174 173 172 168 170 170 173 180 179 178 179 175 175 174 164 159 161 160 160 159 163 168 166 176 196 212 229 241 249 256 216 163 186 183 196 198 191 169 120 82 106 163 188 191 217 234 229 222 219 222 226 229 243 252 242 228 228 229 225 224 226 231 237 236 236 239
175 177 180 181 184 187 186 188 195 200 205 209 209 205 200 197 191 184 180 178 180 179 175 179 183 187 191 187 187 184 170 163 162 154 149 152 154 159 165 169 177 183 194 208 212 213 222 235 243 229 206 190 204 237 243 244 258 267 285 53 103 148 147 162 198 207 212 218 222 224 228 237 245 238 227 227 238 230 224 225 232 241 242 241 243
177 179 182 183 186 190 189 191 198 202 205 208 207 204 202 199 193 187 183 183 186 184 183 188 193 196 197 194 194 187 170 160 154 150 147 147 146 150 158 162 170 177 185 200 203 200 205 213 212 196 202 226 241 244 248 260 268 265 256 243 226 148 134 142 159 161 174 204 212 212 221 231 233 233 226 224 236 233 223 225 230 235 237 240 245
179 181 184 188 191 193 194 195 199 203 206 209 208 205 204 201 194 188 186 187 190 189 188 192 197 202 200 198 198 189 173 159 152 151 148 145 142 141 144 145 148 150 150 163 179 188 189 174 155 134 130 166 224 233 240 253 259 252 243 242 244 207 158 155 162 147 142 166 182 187 201 215 220 223 219 217 222 216 203 209 220 221 215 217 225
181 185 188 192 194 196 199 200 201 203 206 208 208 206 205 203 198 193 191 189 191 193 193 195 199 202 202 204 201 187 172 160 155 156 152 148 143 139 138 136 135 134 130 134 150 165 159 133 121 109 98 96 95 97 107 117 232 227 237 246 244 231 201 187 193 177 162 163 165 173 185 194 204 211 209 208 208 203 196 194 203 211 201 190 182
184 189 192 194 196 199 203 204 203 202 205 209 211 210 209 207 202 199 197 193 192 196 198 198 200 204 205 208 202 185 171 164 160 160 159 153 144 138 136 131 129 127 124 123 126 134 130 115 110 109 105 99 94 91 89 83 82 92 111 209 228 240 246 245 265 268 232 206 199 201 205 197 190 194 193 192 193 196 203 199 194 194 189 176 160
187 189 193 196 197 200 204 206 206 204 206 211 215 215 216 216 212 205 201 196 193 197 202 202 200 202 205 206 198 183 173 169 165 162 161 154 146 141 138 136 132 129 127 123 119 119 116 109 109 112 111 106 102 99 98 92 87 86 89 102 138 187 217 241 267 273 257 236 220 216 225 224 210 206 198 191 190 197 205 203 192 184 176 170 170
186 189 194 197 199 201 204 207 208 209 211 213 217 221 222 220 213 204 200 198 197 199 202 204 200 198 199 198 192 182 176 175 169 166 164 157 152 146 141 139 136 131 129 127 124 122 120 117 113 113 113 110 104 101 101 99 93 89 91 95 105 116 119 121 127 192 239 247 238 224 232 238 238 246 254 258 261 251 239 226 207 195 178 169 182
183 189 195 200 202 203 206 208 211 214 217 218 220 221 219 211 201 193 189 192 199 204 204 202 197 194 196 193 189 185 184 183 178 174 171 168 162 152 142 138 134 130 128 127 125 124 124 121 114 108 106 103 101 102 104 103 98 93 91 93 99 105 105 107 109 109 118 149 260 251 242 244 249 258 273 282 284 281 271 247 222 209 195 185 192
172 178 186 195 202 207 210 214 216 218 221 223 220 218 214 204 200 200 194 193 202 208 209 201 190 189 195 195 195 198 202 197 188 182 182 181 172 161 150 142 136 132 127 123 121 119 116 112 109 103 97 94 97 105 112 109 102 96 89 89 96 99 101 107 111 113 115 125 140 138 149 155 171 229 265 284 290 297 299 268 226 213 209 206 201
156 162 169 179 190 201 210 217 218 218 220 222 218 218 212 195 205 216 212 207 207 207 206 197 186 186 194 198 200 207 217 215 199 190 192 191 182 172 160 150 144 138 132 126 121 118 114 108 104 99 94 88 89 98 109 109 103 98 92 88 88 91 96 104 107 109 116 130 143 132 127 128 120 111 108 118 104 35 6 3 314 212 206 202 192
140 151 161 171 180 190 201 211 215 217 220 220 219 222 221 208 215 222 219 214 209 204 202 195 187 186 193 197 201 205 215 224 212 199 198 196 190 184 172 162 156 148 141 135 126 120 115 108 102 97 94 88 81 83 92 101 104 104 103 100 97 93 99 106 105 103 110 120 130 132 130 125 118 113 108 111 109 95 83 71 68 102 161 181 180
124 137 146 153 162 173 181 189 193 200 212 218 222 228 235 234 226 224 225 223 217 210 204 198 190 187 193 198 200 202 209 221 221 213 209 203 196 192 189 185 176 166 157 146 135 129 123 115 107 100 94 91 85 75 72 87 101 111 119 116 113 115 108 102 101 100 102 107 113 118 117 110 102 100 102 103 106 107 100 90 89 95 104 123 148
129 128 128 129 128 131 139 153 168 172 180 195 210 224 236 239 233 230 228 225 222 214 204 199 192 187 193 198 201 207 212 216 220 221 217 210 204 201 200 201 199 197 195 179 153 139 132 126 120 114 112 112 107 91 70 60 82 104 123 125 123 123 113 107 109 102 95 99 106 104 97 94 87 72 71 76 78 88 90 91 91 83 81 84 90
127 121 117 116 113 112 112 119 141 157 167 171 179 203 220 221 205 213 222 219 219 212 202 202 196 186 189 195 200 208 211 211 219 224 221 215 212 211 210 212 214 213 211 210 202 174 150 144 141 138 140 142 148 147 135 229 287 277 245 171 163 152 130 132 144 122 95 91 105 111 102 99 101 92 72 65 63 65 61 73 82 74 71 72 70
120 118 115 109 104 102 102 106 121 142 164 162 155 173 200 194 158 176 218 212 203 199 199 203 200 189 189 193 197 203 209 212 219 224 226 223 220 220 220 220 221 219 216 216 216 208 203 203 189 175 163 153 152 146 145 239 277 276 268 259 253 244 226 214 210 197 176 69 89 143 155 123 108 98 81 74 82 90 86 78 70 60 55 47 42
124 119 116 110 106 104 108 113 123 137 149 147 145 149 156 171 170 176 209 197 183 184 191 198 200 194 191 194 198 202 209 212 213 218 225 226 223 222 221 224 228 227 223 223 222 222 229 235 235 239 237 214 191 182 185 216 262 263 259 264 269 266 261 256 253 253 257 266 273 265 244 224 177 89 30 8 337 318 23 68 37 12 14 2 353
130 125 118 112 108 110 118 123 121 123 126 125 130 135 133 138 160 179 195 188 180 181 185 193 199 197 195 198 202 204 206 208 207 211 219 221 218 218 219 223 229 230 229 229 227 229 233 236 243 251 252 253 252 247 250 260 253 235 240 267 284 290 287 277 268 264 266 269 273 278 275 260 249 253 265 278 293 299 301 309 312 316 332 332 322
135 136 129 120 118 118 121 123 119 116 117 116 116 118 123 125 128 145 162 166 171 180 185 194 201 199 198 202 204 204 204 206 207 209 214 212 209 213 218 220 224 227 229 229 230 233 234 233 238 248 255 262 269 270 268 274 276 261 255 265 279 289 292 291 285 277 273 273 271 272 277 274 266 264 267 272 281 292 297 295 296 302 309 311 309
141 144 141 136 136 132 124 121 117 113 111 113 114 114 116 116 116 125 138 147 162 176 184 194 201 202 202 203 203 204 205 208 211 213 215 214 213 220 223 223 224 228 232 233 235 239 239 235 238 245 251 255 269 281 277 272 279 279 272 269 270 274 277 278 279 280 280 279 272 266 268 270 269 271 275 280 285 294 304 303 301 301 301 301 301
146 147 146 144 142 141 136 131 124 118 116 115 115 117 120 122 124 130 137 147 164 178 184 192 199 204 208 209 210 215 217 219 223 224 226 229 234 238 239 237 235 234 235 238 242 247 247 244 244 247 249 252 266 281 280 270 266 268 272 272 268 270 272 269 266 270 275 277 275 266 260 260 261 264 269 278 290 301 310 313 307 301 298 298 298
153 151 148 143 139 138 136 134 129 123 123 124 122 122 124 126 128 133 139 146 160 175 184 193 201 206 211 214 218 224 227 228 233 236 237 241 244 245 246 246 242 237 238 243 250 257 255 250 251 252 254 260 269 275 275 268 261 261 265 269 267 268 271 268 263 263 267 271 271 267 262 258 256 260 263 269 282 294 302 308 307 303 301 300 299
166 165 161 152 144 140 136 133 129 121 121 125 127 129 130 130 130 133 137 139 147 159 168 182 197 206 212 218 223 227 231 235 241 244 243 245 247 245 245 246 246 245 247 252 258 263 261 258 258 259 260 264 267 269 269 265 262 260 261 267 273 272 272 272 265 260 262 266 266 265 264 259 258 267 274 269 270 278 287 300 304 303 303 302 302
168 169 169 165 158 152 148 144 141 137 132 127 127 131 134 135 134 135 136 135 138 146 148 153 166 180 195 208 213 215 221 227 232 235 233 234 238 239 238 240 245 248 250 253 257 258 260 262 263 263 263 264 264 266 267 266 263 263 264 268 272 271 271 274 270 260 256 258 260 262 264 263 261 267 281 280 274 276 287 302 304 297 293 296 300
164 163 162 164 164 162 160 158 155 152 148 143 141 140 140 142 141 139 139 139 143 148 145 143 145 149 158 172 178 180 188 195 196 198 198 201 203 203 203 209 217 227 234 240 247 251 259 268 272 271 269 267 267 268 268 267 265 265 266 266 267 267 270 274 271 261 255 253 254 257 260 264 264 262 271 281 276 274 286 301 300 290 287 296 301
166 162 158 157 159 159 159 160 159 158 156 153 151 149 145 144 143 143 145 147 152 159 159 156 157 161 163 166 170 175 184 190 192 196 200 201 203 206 209 209 210 218 227 233 239 250 266 284 297 301 293 283 278 274 272 270 266 264 264 264 266 269 272 273 269 263 257 251 250 253 256 259 260 257 258 264 263 263 275 289 292 289 294 301 302
172 165 162 158 156 157 157 157 158 160 161 162 162 159 151 143 140 149 161 159 156 165 173 173 171 172 174 174 176 184 191 197 204 209 210 210 214 219 223 227 230 235 241 246 251 255 263 273 285 298 304 300 291 284 278 273 268 265 264 265 268 271 272 272 267 262 257 250 248 251 253 255 256 253 251 253 255 257 265 275 281 286 294 300 301
170 166 164 159 155 154 154 156 159 163 164 165 166 165 161 158 161 179 176 152 131 126 149 168 173 176 180 184 191 199 203 206 212 220 226 230 233 236 242 247 252 256 258 262 267 267 268 272 274 278 284 286 288 288 285 278 271 271 272 271 271 272 271 269 266 263 261 255 250 250 251 252 250 246 245 248 251 254 264 273 277 284 296 302 304
151 155 153 155 159 152 143 143 148 155 160 158 156 157 160 159 159 173 171 151 133 124 126 139 153 172 193 203 207 206 208 212 219 227 235 240 243 246 251 256 259 264 268 271 274 274 274 274 274 276 277 278 279 282 283 280 277 281 286 283 277 276 274 272 271 271 269 261 253 250 248 246 242 240 243 247 250 256 266 275 279 287 298 304 304
126 130 122 121 130 133 130 129 132 138 143 143 143 145 154 158 155 159 166 165 166 158 134 132 149 175 220 237 235 218 213 221 232 239 241 242 246 249 253 256 259 264 274 282 285 284 282 277 272 271 272 275 275 274 276 280 282 286 289 288 283 281 280 278 277 277 272 262 253 247 243 240 240 242 245 248 254 263 273 280 285 289 294 299 299
107 128 131 122 113 110 107 106 121 128 127 137 147 151 157 162 164 169 169 168 172 173 168 185 206 215 222 234 241 232 220 221 232 245 254 260 265 267 270 277 281 281 282 284 284 284 285 282 276 271 269 269 270 270 272 277 282 285 287 290 289 287 288 288 286 281 271 256 244 241 241 242 242 244 247 251 260 268 274 279 284 286 287 290 291
81 111 149 149 140 122 74 314 245 161 126 119 130 150 167 171 176 186 188 183 183 187 195 218 237 236 224 230 240 242 236 234 238 250 262 269 272 275 280 287 291 290 289 286 285 285 287 287 286 283 278 275 271 270 271 275 279 282 284 288 291 290 290 289 283 272 256 240 233 235 239 241 240 240 246 254 261 266 271 275 278 281 281 283 284
64 76 102 109 142 212 228 269 264 247 234 225 151 127 187 202 207 216 217 217 220 217 214 228 248 255 256 256 253 250 251 252 253 256 261 266 269 271 275 278 280 282 282 280 281 283 285 286 286 286 285 282 279 276 275 276 278 280 280 283 286 286 284 279 269 257 245 236 233 234 235 236 237 242 251 259 264 268 271 274 278 280 280 281 284
44 48 51 48 59 177 172 267 299 283 271 253 233 227 253 244 239 245 246 244 242 233 229 242 258 266 270 270 266 265 265 265 268 270 272 272 272 273 273 274 276 277 275 274 276 280 281 279 280 282 283 283 282 282 282 283 283 281 278 278 279 278 274 268 260 252 244 237 235 235 235 237 243 252 260 266 270 271 273 277 280 281 282 284 285
25 21 12 4 349 305 267 309 306 279 278 269 249 248 261 260 253 255 256 259 261 252 247 255 264 269 271 271 271 270 270 273 278 279 276 270 268 271 273 275 277 276 275 276 280 284 283 278 276 277 280 281 282 284 287 289 289 286 279 275 274 272 267 261 255 250 245 239 237 237 239 244 252 259 265 268 270 272 274 277 279 281 284 285 285
2 359 353 347 339 330 317 304 287 271 279 287 273 262 258 256 254 253 253 260 268 268 267 267 267 267 266 266 269 271 272 276 279 278 274 268 268 271 273 274 275 275 277 280 281 284 283 279 276 277 278 280 281 283 286 290 291 287 280 274 271 268 263 257 251 245 242 240 240 243 247 253 258 261 263 264 265 268 272 275 278 281 282 283 284
330 331 336 331 325 323 315 302 294 287 284 284 282 277 271 266 266 264 261 265 269 269 270 267 265 264 264 266 270 271 270 271 272 272 271 269 271 273 273 274 274 275 279 283 282 281 280 278 278 281 283 283 283 284 286 288 288 284 273 264 262 260 255 251 247 244 242 242 245 251 258 264 266 266 265 265 267 271 276 279 281 281 281 282 283
312 313 319 317 310 308 303 296 294 293 291 288 284 281 279 274 270 266 263 262 260 256 256 257 258 260 263 266 268 268 269 272 275 276 273 270 270 270 270 271 271 271 275 280 281 280 279 278 279 281 283 284 285 286 286 284 281 274 262 254 253 255 254 251 249 250 251 255 259 263 268 272 272 271 270 271 274 278 279 280 281 281 282 284 286
304 303 307 307 303 299 296 292 292 292 290 286 280 279 280 276 269 266 265 258 248 241 242 245 249 255 260 264 267 270 274 276 277 275 271 266 263 261 261 263 264 266 271 276 278 278 277 275 274 275 279 283 283 283 284 278 269 262 256 255 259 261 260 257 255 256 260 265 267 268 268 269 268 270 273 276 278 280 281 282 284 285 287 288 290
299 297 297 297 297 297 295 295 296 296 294 290 280 273 272 270 267 268 267 258 245 241 242 244 247 254 260 264 268 271 272 272 271 271 269 265 264 264 264 263 263 267 271 273 275 276 273 269 267 270 276 279 276 275 274 265 253 252 255 258 263 263 261 258 258 259 262 263 264 265 267 268 269 272 275 277 279 281 284 285 287 287 289 290 291
292 293 293 292 291 291 291 294 302 312 315 307 287 265 257 256 257 259 260 255 251 251 252 254 257 260 264 267 269 270 271 270 270 270 270 270 271 272 273 273 272 272 272 271 272 272 269 266 266 270 273 271 267 265 262 250 245 251 252 253 260 262 259 256 256 257 259 261 264 266 268 269 271 273 275 278 282 284 286 287 288 289 289 289 289
290 291 293 291 289 288 288 288 289 296 313 311 290 266 255 252 249 250 252 252 254 257 259 261 263 266 269 271 273 274 274 274 273 273 275 277 277 277 277 277 276 275 272 269 269 268 264 261 262 265 266 262 257 252 246 241 243 249 247 245 253 258 254 252 254 256 259 263 263 264 265 268 272 277 281 285 289 291 293 294 292 290 288 287 288
290 290 289 286 285 284 285 285 283 279 278 283 284 280 275 270 265 262 261 261 263 265 266 267 268 268 269 271 272 274 276 277 278 278 279 280 280 277 274 273 272 271 269 267 266 266 263 260 261 263 262 255 244 236 236 240 245 247 245 243 248 250 249 250 252 254 256 258 259 262 268 272 277 282 287 292 297 300 299 297 293 289 287 287 288
289 288 287 286 285 284 283 283 282 279 275 272 272 274 277 278 276 274 273 274 274 275 275 273 271 270 270 271 274 276 279 280 280 280 280 279 278 274 271 271 271 270 268 266 265 265 265 266 270 270 262 249 238 234 235 238 238 234 232 235 237 238 241 244 246 249 254 259 264 268 271 274 280 288 297 303 305 305 303 299 295 292 290 288 288
287 287 286 285 286 286 286 285 285 284 281 275 270 270 273 276 275 274 274 273 273 276 277 276 274 274 275 277 278 279 279 279 278 278 276 275 274 273 272 272 272 270 267 264 261 261 263 266 268 263 250 238 237 236 226 219 216 211 209 217 221 224 230 237 244 255 265 271 273 273 274 284 298 307 312 312 310 308 305 302 298 295 292 290 290
286 286 286 286 285 284 286 288 289 288 284 276 271 270 270 271 270 270 270 269 269 272 274 274 275 276 278 279 280 279 278 277 275 274 273 271 270 270 270 270 268 264 259 256 254 254 254 254 250 239 222 210 213 217 207 197 193 192 195 201 203 205 217 232 245 258 269 280 289 297 306 316 321 321 318 315 310 305 302 300 299 298 297 298 300